Regional Weather Roundup
Issued by NWS

Home | Current Version | Previous Version | Graphics & Text | Print | Product List | Glossary On
Versions: 1 2 3 4 5 6 7 8 9 10 11 12 13 14 15 16 17 18 19 20 21 22 23 24 25 26 27
000
ASUS45 KSLC 250510
RWRUT

UTAH REGIONAL WEATHER ROUNDUP
NATIONAL WEATHER SERVICE SALT LAKE CITY UT
1100 PM MDT TUE MAY 24 2016

UTZ001>011-023>025-250600-

NORTHERN UTAH

CITY           SKY/WX    TMP DP  RH WIND       PRES   REMARKS
BRIGHAM CITY     N/A     50  42  72 NW3       29.93S
HILL AFB       CLOUDY    53  38  56 E9        29.94R
LOGAN          MOCLDY    49  44  83 SW3       29.94R
OGDEN          CLOUDY    54  39  57 S9        29.92R
PROVO AIRPORT  MOCLDY    52  36  54 CALM      29.96F
SALT LAKE CITY MOCLDY    58  40  51 SE5       29.93R
VERNAL         CLOUDY    57  32  38 SE5       29.95R
WENDOVER       PTCLDY    54  36  50 NW14G22   29.94R
HEBER CITY     DRIZZLE   45  39  81 CALM      29.99S
WEST JORDAN    CLEAR     52  39  62 S9        29.95R

$$

UTZ012>022-026-027-250600-

SOUTHERN/CENTRAL UTAH

CITY           SKY/WX    TMP DP  RH WIND       PRES   REMARKS
BLANDING       CLEAR     60  13  15 SW15G21   30.06R
BRYCE CANYON   CLEAR     33  23  66 SW8       30.09R WCI  26
CEDAR CITY     MOCLDY    50  25  37 S5        30.00R
DELTA          MOCLDY    50  39  66 N7        29.95R
HANKSVILLE     CLEAR     63  27  25 W13       29.95R
MILFORD        PTCLDY    50  27  40 S9        29.96R
MOAB/CYNLANDS  PTCLDY    61  28  28 W14       29.90R
PRICE          PTCLDY    50  27  40 NW5       29.98R
ST GEORGE      MOCLDY    66  27  22 S7        29.93R

$$

REGIONAL REPORTS     COLORADO/ARIZONA

CITY           SKY/WX    TMP DP  RH WIND       PRES   REMARKS
CRAIG, CO      CLOUDY    46  34  62 SE5       30.00R
GRAND JUNCTION MOCLDY    60  24  25 CALM      29.90R
RIFLE          MOCLDY    64  22  20 W17       29.92R
MONTROSE       CLEAR     51  23  33 S8        29.98R
CORTEZ         CLEAR     55  18  23 S12       30.03R
PAGE, AZ       CLEAR     65  21  18 VRB6      29.95R
GRAND CANYON   MOCLDY    47  15  27 SW5       30.10R
KINGMAN          N/A     59  23  25 S9        29.97
FLAGSTAFF      PTCLDY    49  23  36 SW9       30.13R

$$

REGIONAL REPORTS    NEVADA/IDAHO/WYOMING

CITY           SKY/WX    TMP DP  RH WIND       PRES   REMARKS
LAS VEGAS, NV  CLEAR     71  30  21 SW9       29.84R
ELY            CLOUDY    42  38  85 SW6       30.03S
ELKO           CLOUDY    46  40  79 CALM      29.99R
POCATELLO, ID  LGT RAIN  49  44  83 SW18      29.94R
BURLEY         CLOUDY    54  41  61 SW12      29.89R
EVANSTON, WY   CLOUDY    38  32  79 S7        30.02R WCI  33
ROCK SPRINGS   CLOUDY    40  36  86 W8        30.03R WCI  34
KEMMERER         N/A     37  36  93 CALM      30.02S

$$




USA.gov is the U.S. government's official web portal to all federal, state and local government web resources and services.